Location: Conflandey
(47.7287°N, 6.0456°E)
Time: 04:05:32
(UTC+00:00)

PAYLOAD B - Pass Details

Date: 24 October 2021
Orbit: 849 x 871 km, 99.1° (Epoch: 05 December)

Event Time Altitude Azimuth Distance (km) Brightness Sun altitude
Rises 17:03:53 0° 158° (SSE) 3,415 7.2 -6.2°
Reaches altitude 10° 17:06:14 10° 157° (SSE) 2,485 6.5 -6.6°
Maximum altitude 17:11:45 78° 72° (ENE) 886 4.2 -7.5°
Drops below altitude 10° 17:17:20 10° 347° (NNW) 2,517 6.7 -8.4°
Sets 17:19:44 0° 347° (NNW) 3,462 7.5 -8.8°
